Regional Weather Roundup
Issued by NWS Kansas City/Pleasant Hill, MO

Home | Current Version | Previous Version | Graphics & Text | Print | Product List | Glossary Off
Versions: 1 2 3 4 5 6 7 8 9 10 11 12 13 14 15 16 17 18 19 20 21 22 23 24 25 26 27 28 29 30 31 32 33 34 35 36 37 38 39 40 41 42 43 44 45 46 47 48 49 50

000
ASUS43 KEAX 281310
RWREAX

WEATHER ROUNDUP FOR EASTERN KANSAS AND NORTHWEST MISSOURI
NATIONAL WEATHER SERVICE KANSAS CITY/PLEASANT HILL MO
800 AM CDT THU JUL 28 2016

KSZ040-057-103>105-MOZ028-029-037-043-281400-
...KANSAS CITY METROPOLITAN AREA...

CITY           SKY/WX    TMP DP  RH WIND       PRES   REMARKS
K.C. INTL      CLOUDY    73  71  93 N6        29.98R
K.C. DOWNTOWN  CLOUDY    76  71  85 NW5       29.96R
LEES SUMMIT    SUNNY     77  72  84 CALM      29.98R
OLATHE - IXD   SUNNY     74  72  93 NW5       29.99R
OLATHE - OJC   CLOUDY    74  71  91 NW5       29.98S
LAWRENCE       CLOUDY    73  71  93 NW3       29.98S

$$

MOZ001>008-011>017-020>025-030>033-038>040-044>046-053-054-281400-
...NORTHERN AND CENTRAL MISSOURI...

CITY           SKY/WX    TMP DP  RH WIND       PRES   REMARKS
ST. JOSEPH     PTSUNNY   72  70  93 CALM      29.99R
MOSBY          CLOUDY    73  72  94 NW3       29.97R
WHITEMAN AFB   MOSUNNY   75  75 100 NW5       29.95R
CLINTON        SUNNY     75  75 100 CALM      29.96R FOG
SEDALIA        SUNNY     79  73  82 W5        29.96R
WARSAW         NOT AVBL
CHILLICOTHE      N/A     77  70  79 CALM      29.96S
KIRKSVILLE     SUNNY     75  69  81 CALM      29.96R

$$

MOZ041-047>049-056>058-063>065-088>090-097-281400-
...EASTERN AND SOUTHERN MISSOURI...

CITY           SKY/WX    TMP DP  RH WIND       PRES   REMARKS
ST. LOUIS INTL MOSUNNY   80  70  71 SW6       29.91S
SPIRIT OF STL  MOSUNNY   77  73  87 SW6       29.90S
COLUMBIA       SUNNY     77  74  90 NW7       29.94R
JEFFERSON CITY MOSUNNY   76  74  93 NW3       29.93R
ROLLA          FOG       72  71  97 CALM      29.94R VSB 1/4
OSAGE BEACH    CLOUDY    75  73  93 VRB5      29.96R
SPRINGFIELD    SUNNY     76  71  85 W6        29.98R
BRANSON        SUNNY     73  72  94 CALM      30.01R
JOPLIN         MOSUNNY   75  73  93 SW6       29.99R
WEST PLAINS    FOG       72  70  93 W7        30.00R VSB 1/4

$$

IAZ060-094-KSZ022-034>040-054-083-096-NEZ052-066-093-281400-
...KANSAS...SOUTHEAST NEBRASKA AND IOWA...

CITY           SKY/WX    TMP DP  RH WIND       PRES   REMARKS
TOPEKA         MOSUNNY   75  70  84 W3        30.00R
MANHATTAN      MOSUNNY   75  70  84 N5        30.02R
EMPORIA        TSTM      74  72  93 N3        30.01R FOG
CHANUTE        SUNNY     77  74  90 NW8       29.98R
WICHITA        PTSUNNY   80  71  74 NW10      30.00F
OMAHA          MOSUNNY   72  67  84 N7        30.03R
LINCOLN        SUNNY     70  65  84 N5        30.05S
FALLS CITY     MOSUNNY   71  69  93 NW5       30.00R
LAMONI         MOSUNNY   70  69  97 N10       29.99R
DES MOINES     MOSUNNY   73  66  78 N7        29.97R

$$




USA.gov is the U.S. government's official web portal to all federal, state and local government web resources and services.